DW5247 Lemo FI current weather conditions

sailwx.info

Wind from 293 at 2 knots gusting 3

Air temperature 20.6° C
Dewpoint 17.6° C

Last reported at 2016-Jul-30 15:52 UTC.
Time now 2016-Jul-30 16:57 UTC

Location: N 62°41' E 029°49'.
View on Google Maps.

See reports from other nearby stations

  
Tides and Currents Weather Stations Pressure Air Temp Water Temp Dewpoint Dewpoint Depression Visibility Wind Speed Wind Dir Waves Ship Positions
date/time (UTC)wind fromknots sea level pressurealtimeterstation pressurevisibilityair tempwater tempwave heightnotes
2016-Jul-30 15:52 293 2 gusting 3 20.6
2016-Jul-30 15:47 315 2 gusting 3 20.6
2016-Jul-30 15:42 315 0 gusting 0 20.6
2016-Jul-30 15:37 315 0 gusting 1 20.6
2016-Jul-30 15:32 315 21.1
2016-Jul-30 15:27 315 0 gusting 2 21.1
2016-Jul-30 15:22 315 0 gusting 1 20.6
2016-Jul-30 15:17 315 21.1
2016-Jul-30 15:12 293 21.1
2016-Jul-30 15:07 293 21.1
2016-Jul-30 15:02 203 21.1
2016-Jul-30 14:57 338 21.1
2016-Jul-30 14:52 023 21.1
2016-Jul-30 14:47 338 21.1
2016-Jul-30 14:42 20.6
2016-Jul-30 14:37 315 21.1
2016-Jul-30 14:32 315 21.1
2016-Jul-30 14:27 293 21.1
2016-Jul-30 14:22 315 21.1
2016-Jul-30 14:17 293 21.1
2016-Jul-30 14:12 248 21.1
2016-Jul-30 14:07 270 21.1
2016-Jul-30 14:02 248 21.1
2016-Jul-30 13:57 315 21.1
2016-Jul-30 13:52 248 0 gusting 2 21.1
2016-Jul-30 13:47 248 0 gusting 1 21.1
2016-Jul-30 13:42 248 21.1
2016-Jul-30 13:37 315 21.1
2016-Jul-30 13:32 338 0 gusting 2 21.1
2016-Jul-30 13:27 315 0 gusting 1 21.1
2016-Jul-30 13:22 21.1
2016-Jul-30 13:17 315 0 gusting 3 21.1
2016-Jul-30 13:12 315 0 gusting 3 21.1
2016-Jul-30 13:07 315 0 gusting 3 21.1
2016-Jul-30 13:02 315 0 gusting 3 21.1
2016-Jul-30 12:57 338 1 gusting 3 21.1
2016-Jul-30 12:52 315 0 gusting 2 21.1
2016-Jul-30 12:47 315 0 gusting 2 21.1
2016-Jul-30 12:42 338 0 gusting 2 21.1
2016-Jul-30 12:37 21.1
2016-Jul-30 12:32 338 0 gusting 3 21.1
2016-Jul-30 12:27 338 1 gusting 3 21.1
2016-Jul-30 12:22 315 2 gusting 3 21.1
2016-Jul-30 12:17 21.1
2016-Jul-30 12:12 338 2 gusting 3 21.1
2016-Jul-30 12:07 338 1 gusting 3 21.1
2016-Jul-30 12:02 023 1 gusting 3 21.1
2016-Jul-30 11:57 338 1 gusting 3 21.1
2016-Jul-30 11:52 338 1 gusting 3 21.1
2016-Jul-30 11:47 338 0 gusting 3 21.1
2016-Jul-30 11:42 315 21.1
2016-Jul-30 11:37 338 0 gusting 3 21.1
2016-Jul-30 11:32 21.1
2016-Jul-30 11:27 315 1 gusting 4 21.1
2016-Jul-30 11:22 023 0 gusting 4 21.1
2016-Jul-30 11:17 315 0 gusting 1 21.1
2016-Jul-30 11:12 293 0 gusting 2 21.1
2016-Jul-30 11:07 023 1 gusting 2 21.1
2016-Jul-30 11:02 315 1 gusting 2 21.1
2016-Jul-30 10:57 338 1 gusting 2 21.1
2016-Jul-30 10:52 315 0 gusting 2 20.6
2016-Jul-30 10:47 315 0 gusting 3 20.6
2016-Jul-30 10:42 023 0 gusting 3 21.1
2016-Jul-30 10:37 315 1 gusting 3 20.6
2016-Jul-30 10:32 315 1 gusting 3 20.6
2016-Jul-30 10:27 338 1 gusting 4 20.6
2016-Jul-30 10:22 315 1 gusting 4 20.6
2016-Jul-30 10:17 338 1 gusting 4 20.6
2016-Jul-30 10:12 20.6
2016-Jul-30 10:07 315 1 gusting 4 20.6
2016-Jul-30 10:02 338 0 gusting 2 20.6
2016-Jul-30 09:57 270 0 gusting 2 20.6
2016-Jul-30 09:52 023 1 gusting 2 20.6
2016-Jul-30 09:47 315 1 gusting 2 20.6
2016-Jul-30 09:42 315 1 gusting 2 20.6
2016-Jul-30 09:37 338 0 gusting 3 20.0
2016-Jul-30 09:32 315 0 gusting 3 20.6
2016-Jul-30 09:27 338 0 gusting 3 20.6
2016-Jul-30 09:22 315 0 20.6
2016-Jul-30 09:17 315 0 gusting 1 20.6
2016-Jul-30 09:12 20.0
2016-Jul-30 09:07 20.0
2016-Jul-30 09:02 20.0
2016-Jul-30 08:57 338 20.0
2016-Jul-30 08:52 023 1 gusting 5 20.0
2016-Jul-30 08:47 023 1 gusting 5 20.0
2016-Jul-30 08:42 315 1 gusting 4 20.0
2016-Jul-30 08:37 293 1 gusting 4 20.0
2016-Jul-30 08:32 315 1 gusting 4 20.0
2016-Jul-30 08:27 315 1 gusting 3 20.0
2016-Jul-30 08:22 315 1 gusting 3 20.0
2016-Jul-30 08:17 338 1 gusting 3 20.0
2016-Jul-30 08:12 315 1 gusting 6 20.0
2016-Jul-30 08:07 315 2 gusting 6 20.0
2016-Jul-30 08:02 315 3 gusting 7 20.0
2016-Jul-30 07:57 293 3 gusting 7 20.0
2016-Jul-30 07:52 270 2 gusting 5 20.0
2016-Jul-30 07:47 315 2 gusting 5 19.4
2016-Jul-30 07:42 315 2 gusting 4 19.4
2016-Jul-30 07:37 315 1 gusting 4 19.4
2016-Jul-30 07:32 315 1 gusting 4 19.4
2016-Jul-30 07:27 315 1 gusting 4 19.4
2016-Jul-30 07:22 315 1 gusting 3 19.4
2016-Jul-30 07:17 315 1 gusting 3 19.4
2016-Jul-30 07:12 19.4
2016-Jul-30 07:07 293 1 gusting 2 19.4
2016-Jul-30 07:02 315 1 gusting 3 18.9
2016-Jul-30 06:57 338 1 gusting 3 18.9
2016-Jul-30 06:52 18.9
2016-Jul-30 06:47 338 2 gusting 4 18.9
2016-Jul-30 06:42 338 3 gusting 4 18.9
2016-Jul-30 06:37 315 1 gusting 5 18.9
2016-Jul-30 06:32 315 1 gusting 5 18.9
2016-Jul-30 06:27 315 1 gusting 5 18.9
2016-Jul-30 06:22 293 1 gusting 3 18.9
2016-Jul-30 06:17 315 1 gusting 4 18.3
2016-Jul-30 06:12 338 1 gusting 4 18.3
2016-Jul-30 06:07 338 1 gusting 2 18.3
2016-Jul-30 06:02 315 1 gusting 5 18.3
2016-Jul-30 05:57 315 1 gusting 5 18.3
2016-Jul-30 05:52 315 1 gusting 5 18.3
2016-Jul-30 05:47 225 1 gusting 3 18.3
2016-Jul-30 05:42 315 1 gusting 2 17.8
2016-Jul-30 05:37 293 0 gusting 2 17.8
2016-Jul-30 05:32 315 0 gusting 2 17.8
2016-Jul-30 05:27 315 0 gusting 2 17.8
2016-Jul-30 05:22 315 0 gusting 3 17.8
2016-Jul-30 05:17 338 1 gusting 3 17.8
2016-Jul-30 05:12 338 0 gusting 3 17.2
2016-Jul-30 05:07 338 0 gusting 3 17.2
2016-Jul-30 05:02 315 1 gusting 3 17.2
2016-Jul-30 04:57 315 1 gusting 3 17.2
2016-Jul-30 04:52 315 16.7
2016-Jul-30 04:47 158 16.7
2016-Jul-30 04:42 315 16.7
2016-Jul-30 04:37 315 16.7
2016-Jul-30 04:32 315 16.7
2016-Jul-30 04:27 315 16.7
2016-Jul-30 04:22 315 16.7
2016-Jul-30 04:17 315 16.7
2016-Jul-30 04:12 315 16.1
2016-Jul-30 04:07 315 16.1
2016-Jul-30 04:02 338 16.1
2016-Jul-30 03:57 023 16.1
2016-Jul-30 03:52 315 16.1
2016-Jul-30 03:47 315 0 gusting 2 16.1
2016-Jul-30 03:42 338 0 gusting 1 15.6
2016-Jul-30 03:37 315 15.6
2016-Jul-30 03:32 338 15.6
2016-Jul-30 03:27 315 15.6
2016-Jul-30 03:22 023 15.6
2016-Jul-30 03:17 023 15.6
2016-Jul-30 03:12 023 15.0
2016-Jul-30 03:07 023 15.0
2016-Jul-30 03:02 045 15.0
2016-Jul-30 02:57 023 15.0
2016-Jul-30 02:52 023 15.0
2016-Jul-30 02:47 023 15.0
2016-Jul-30 02:42 180 15.0
2016-Jul-30 02:37 180 15.0
2016-Jul-30 02:32 180 15.0
2016-Jul-30 02:27 158 14.4
2016-Jul-30 02:22 045 14.4
2016-Jul-30 02:17 068 14.4
2016-Jul-30 02:12 135 14.4
2016-Jul-30 02:07 248 14.4
2016-Jul-30 02:02 158 14.4
2016-Jul-30 01:57 180 14.4
2016-Jul-30 01:52 158 14.4
2016-Jul-30 01:47 203 14.4
2016-Jul-30 01:42 180 14.4
2016-Jul-30 01:37 180 0 gusting 2 14.4
2016-Jul-30 01:32 180 14.4
2016-Jul-30 01:27 180 14.4
2016-Jul-30 01:22 158 14.4
2016-Jul-30 01:17 180 14.4
2016-Jul-30 01:12 135 14.4
2016-Jul-30 01:07 248 14.4
2016-Jul-30 01:02 225 14.4
2016-Jul-30 00:57 315 15.0
2016-Jul-30 00:52 203 15.0
2016-Jul-30 00:47 158 15.0
2016-Jul-30 00:42 203 15.0
2016-Jul-30 00:37 158 15.0
2016-Jul-30 00:32 180 0 gusting 1 15.0
2016-Jul-30 00:27 203 15.0
2016-Jul-30 00:22 158 15.0
2016-Jul-30 00:17 180 15.0
2016-Jul-30 00:12 203 15.0
2016-Jul-30 00:07 203 15.0
2016-Jul-30 00:02 225 15.6
2016-Jul-29 23:57 203 15.0
2016-Jul-29 23:52 225 15.6
2016-Jul-29 23:47 135 15.6
2016-Jul-29 23:42 135 15.6
2016-Jul-29 23:37 158 15.6
2016-Jul-29 23:32 315 15.6
2016-Jul-29 23:27 315 15.6
2016-Jul-29 23:22 315 15.6
2016-Jul-29 23:17 225 15.6
2016-Jul-29 23:12 180 16.1
2016-Jul-29 23:07 180 16.1
2016-Jul-29 23:02 180 16.1
2016-Jul-29 22:57 315 16.1
2016-Jul-29 22:52 225 16.1
2016-Jul-29 22:47 180 16.1
2016-Jul-29 22:42 180 16.1
2016-Jul-29 22:37 225 16.7
2016-Jul-29 22:32 180 16.7
2016-Jul-29 22:27 225 16.7
2016-Jul-29 22:22 270 16.7
2016-Jul-29 22:17 248 16.7
2016-Jul-29 22:12 248 16.7
2016-Jul-29 22:07 248 16.7
2016-Jul-29 22:02 225 16.7
2016-Jul-29 21:57 225 16.7
2016-Jul-29 21:52 225 16.7
2016-Jul-29 21:47 180 16.7
2016-Jul-29 21:42 180 16.7
2016-Jul-29 21:37 248 16.7
2016-Jul-29 21:32 203 16.7
2016-Jul-29 21:27 203 16.7
2016-Jul-29 21:22 270 16.7
2016-Jul-29 21:17 338 16.7
2016-Jul-29 21:12 338 16.7
2016-Jul-29 21:07 315 16.7
2016-Jul-29 20:57 248 16.7
2016-Jul-29 20:52 315 16.7
2016-Jul-29 20:47 315 16.7
2016-Jul-29 20:42 315 16.7
2016-Jul-29 20:37 315 16.7
2016-Jul-29 20:32 315 16.7
2016-Jul-29 20:27 203 16.7
2016-Jul-29 20:22 225 16.7
2016-Jul-29 20:17 225 16.7
2016-Jul-29 20:12 225 16.7
2016-Jul-29 20:07 203 17.2
2016-Jul-29 20:02 180 17.2
2016-Jul-29 19:57 180 17.2
2016-Jul-29 19:52 225 17.2
2016-Jul-29 19:47 315 17.2
2016-Jul-29 19:42 315 17.8
2016-Jul-29 19:37 023 17.8
2016-Jul-29 19:32 248 17.8
2016-Jul-29 19:27 225 17.8
2016-Jul-29 19:22 180 17.8
2016-Jul-29 19:17 180 17.8
2016-Jul-29 19:12 225 18.3
2016-Jul-29 19:07 248 18.3
2016-Jul-29 19:02 248 18.3
2016-Jul-29 18:57 248 18.3
2016-Jul-29 18:52 18.3
2016-Jul-29 18:47 293 18.3
2016-Jul-29 18:42 270 18.3
2016-Jul-29 18:37 315 18.3
2016-Jul-29 18:32 315 18.9
2016-Jul-29 18:27 315 18.9
2016-Jul-29 18:22 315 18.9
2016-Jul-29 18:17 315 18.9
2016-Jul-29 18:12 338 18.9
2016-Jul-29 18:07 338 18.9
2016-Jul-29 18:02 315 18.9
2016-Jul-29 17:57 315 18.9
2016-Jul-29 17:52 18.9
2016-Jul-29 17:47 18.9
2016-Jul-29 17:42 338 18.9
2016-Jul-29 17:37 338 18.9
2016-Jul-29 17:32 315 19.4
2016-Jul-29 17:27 315 19.4
2016-Jul-29 17:22 315 19.4
2016-Jul-29 17:17 315 19.4
2016-Jul-29 17:12 113 19.4
2016-Jul-29 17:07 023 19.4
2016-Jul-29 17:02 338 19.4
2016-Jul-29 16:57 315 19.4
2016-Jul-29 16:52 315 0 gusting 2 19.4
2016-Jul-29 16:47 338 1 gusting 2 19.4
2016-Jul-29 16:42 315 1 gusting 2 19.4
2016-Jul-29 16:37 293 0 gusting 2 19.4
2016-Jul-29 16:32 248 19.4
2016-Jul-29 16:27 293 19.4
2016-Jul-29 16:22 023 19.4
2016-Jul-29 16:17 19.4
2016-Jul-29 16:12 315 0 gusting 3 19.4
2016-Jul-29 16:07 338 0 gusting 3 19.4
2016-Jul-29 16:02 315 0 gusting 3 19.4
2016-Jul-29 15:57 315 0 gusting 1 19.4
2016-Jul-29 15:52 315 0 gusting 2 19.4
2016-Jul-29 15:47 19.4
2016-Jul-29 15:42 338 0 gusting 2 19.4
2016-Jul-29 15:37 270 0 gusting 3 19.4
2016-Jul-29 15:32 315 1 gusting 5 19.4
2016-Jul-29 15:27 19.4
2016-Jul-29 15:22 315 2 gusting 5 19.4
2016-Jul-29 15:17 315 2 gusting 5 19.4
2016-Jul-29 15:12 338 3 gusting 5 19.4
2016-Jul-29 15:07 023 2 gusting 4 19.4
2016-Jul-29 15:02 315 1 gusting 4 19.4
2016-Jul-29 14:57 338 0 gusting 3 19.4
2016-Jul-29 14:52 203 1 gusting 4 19.4
2016-Jul-29 14:47 315 3 gusting 4 18.9
2016-Jul-29 14:42 338 2 gusting 4 18.9
2016-Jul-29 14:37 315 3 gusting 4 18.9
2016-Jul-29 14:32 315 2 gusting 2 18.9
2016-Jul-29 14:27 338 2 gusting 5 18.9
2016-Jul-29 14:22 338 1 gusting 5 18.9
2016-Jul-29 14:17 023 1 gusting 5 18.9
2016-Jul-29 14:12 315 1 gusting 3 18.9
2016-Jul-29 14:07 315 0 gusting 2 18.9
2016-Jul-29 14:02 315 0 gusting 2 18.3
2016-Jul-29 13:57 315 0 gusting 2 18.3
2016-Jul-29 13:52 315 0 gusting 4 18.3
2016-Jul-29 13:47 315 0 gusting 5 18.3
2016-Jul-29 13:42 315 2 gusting 5 18.3
2016-Jul-29 13:37 315 3 gusting 5 18.3
2016-Jul-29 13:32 338 2 gusting 3 18.9
2016-Jul-29 13:27 023 0 gusting 3 18.9
2016-Jul-29 13:22 338 1 gusting 4 18.9
2016-Jul-29 13:17 293 2 gusting 4 18.3
2016-Jul-29 13:12 315 2 gusting 3 18.3
2016-Jul-29 13:07 338 0 gusting 3 18.9
2016-Jul-29 13:02 315 0 gusting 2 18.3
2016-Jul-29 12:57 090 0 gusting 2 18.3
2016-Jul-29 12:52 338 0 gusting 3 18.3
2016-Jul-29 12:47 315 0 gusting 3 18.3
2016-Jul-29 12:42 338 0 gusting 3 18.3
2016-Jul-29 12:37 293 1 gusting 2 18.3
2016-Jul-29 12:32 293 0 gusting 2 18.3
2016-Jul-29 12:27 315 0 gusting 2 18.3
2016-Jul-29 12:22 225 0 gusting 3 18.3
2016-Jul-29 12:17 338 0 gusting 3 18.3
2016-Jul-29 12:12 315 1 gusting 3 18.3
2016-Jul-29 12:07 338 1 gusting 2 18.3
2016-Jul-29 12:02 315 1 gusting 2 18.3
2016-Jul-29 11:57 338 1 gusting 2 18.3
2016-Jul-29 11:52 315 0 gusting 2 18.3
2016-Jul-29 11:47 293 0 gusting 2 18.3
2016-Jul-29 11:42 315 0 gusting 2 18.3
2016-Jul-29 11:37 18.3
2016-Jul-29 11:32 338 18.3
2016-Jul-29 11:27 338 18.3
2016-Jul-29 11:22 338 0 gusting 3 18.3
2016-Jul-29 11:17 315 1 gusting 3 17.8
2016-Jul-29 11:12 338 1 gusting 3 17.8
2016-Jul-29 11:07 158 0 gusting 3 17.8
2016-Jul-29 11:02 270 0 gusting 3 17.8
2016-Jul-29 10:57 338 0 gusting 3 17.8
2016-Jul-29 10:52 293 0 gusting 3 17.8
2016-Jul-29 10:47 293 0 gusting 3 17.8
2016-Jul-29 10:42 293 0 gusting 3 17.8
2016-Jul-29 10:37 338 1 gusting 3 17.8
2016-Jul-29 10:32 270 0 gusting 3 17.8
2016-Jul-29 10:27 315 0 gusting 3 17.8
2016-Jul-29 10:22 293 0 gusting 3 17.8
2016-Jul-29 10:17 315 1 gusting 3 17.8
2016-Jul-29 10:12 338 1 gusting 4 17.8
2016-Jul-29 10:07 315 1 gusting 4 17.8
2016-Jul-29 10:02 315 1 gusting 4 17.8
2016-Jul-29 09:57 315 1 gusting 4 17.8
2016-Jul-29 09:52 270 1 gusting 4 17.8
2016-Jul-29 09:47 248 1 gusting 2 17.8
2016-Jul-29 09:42 293 0 gusting 3 17.8
2016-Jul-29 09:37 338 0 gusting 3 17.8
2016-Jul-29 09:32 338 1 gusting 3 17.8
2016-Jul-29 09:27 315 1 gusting 2 17.8
2016-Jul-29 09:22 293 0 17.8
2016-Jul-29 09:17 338 0 17.2
2016-Jul-29 09:12 338 0 gusting 2 17.2
2016-Jul-29 09:07 338 0 gusting 2 17.2
2016-Jul-29 09:02 315 0 gusting 3 17.2
2016-Jul-29 08:57 315 1 gusting 3 17.2
2016-Jul-29 08:52 315 1 gusting 3 16.7
2016-Jul-29 08:47 315 1 gusting 3 16.7
2016-Jul-29 08:42 315 1 gusting 3 16.7
2016-Jul-29 08:37 338 1 gusting 3 16.7
2016-Jul-29 08:32 315 0 gusting 2 16.7
2016-Jul-29 08:27 315 0 gusting 2 16.7
2016-Jul-29 08:22 293 0 gusting 2 16.7
2016-Jul-29 08:17 293 0 gusting 1 16.7
2016-Jul-29 08:12 315 0 gusting 2 16.7
2016-Jul-29 08:07 293 0 gusting 2 16.7
2016-Jul-29 08:02 315 0 gusting 1 16.7
2016-Jul-29 07:57 023 0 gusting 1 16.1
2016-Jul-29 07:52 248 0 gusting 2 16.1
2016-Jul-29 07:47 315 1 gusting 2 16.1
2016-Jul-29 07:42 293 0 gusting 2 16.1
2016-Jul-29 07:37 293 0 gusting 3 16.1
2016-Jul-29 07:32 315 0 gusting 3 16.1
2016-Jul-29 07:27 315 0 gusting 3 16.1
2016-Jul-29 07:22 270 0 gusting 2 16.1
2016-Jul-29 07:17 315 0 gusting 2 16.1
2016-Jul-29 07:12 338 16.1
2016-Jul-29 07:07 270 0 gusting 2 16.1
2016-Jul-29 07:02 338 0 gusting 2 16.1
2016-Jul-29 06:57 315 16.1
2016-Jul-29 06:52 315 16.1
2016-Jul-29 06:47 293 16.1
2016-Jul-29 06:42 315 16.1
2016-Jul-29 06:37 315 0 gusting 1 16.1
2016-Jul-29 06:32 338 0 gusting 2 16.1
2016-Jul-29 06:27 338 0 gusting 2 16.1
2016-Jul-29 06:22 16.1
2016-Jul-29 06:17 338 1 gusting 4 16.1
2016-Jul-29 06:12 338 2 gusting 3 16.1
2016-Jul-29 06:07 315 1 gusting 3 16.1
2016-Jul-29 06:02 315 0 gusting 1 16.1
2016-Jul-29 05:57 315 16.1
2016-Jul-29 05:52 315 16.1
2016-Jul-29 05:47 293 16.1
2016-Jul-29 05:42 293 16.1
2016-Jul-29 05:37 338 16.1
2016-Jul-29 05:32 16.1
2016-Jul-29 05:27 315 16.1
2016-Jul-29 05:22 338 16.1
2016-Jul-29 05:17 315 16.1
2016-Jul-29 05:12 315 16.1
2016-Jul-29 05:07 315 16.1
2016-Jul-29 05:02 293 0 gusting 2 16.1
2016-Jul-29 04:57 315 0 gusting 2 16.1
2016-Jul-29 04:52 315 0 gusting 2 16.1
2016-Jul-29 04:47 315 16.1
2016-Jul-29 04:42 16.1
2016-Jul-29 04:37 315 16.1
2016-Jul-29 04:32 338 16.1
2016-Jul-29 04:27 338 16.1
2016-Jul-29 04:22 338 16.1
2016-Jul-29 04:17 023 16.1
2016-Jul-29 04:12 023 16.1
2016-Jul-29 04:07 338 16.1
2016-Jul-29 04:02 338 16.1
2016-Jul-29 03:57 023 16.1
2016-Jul-29 03:52 315 16.1
2016-Jul-29 03:47 023 15.6
2016-Jul-29 03:42 338 16.1
2016-Jul-29 03:37 315 15.6
2016-Jul-29 03:32 315 16.1
2016-Jul-29 03:27 315 15.6
2016-Jul-29 03:22 315 15.6
2016-Jul-29 03:17 023 15.6
2016-Jul-29 03:12 023 15.6
2016-Jul-29 03:07 023 15.6
2016-Jul-29 03:02 023 15.6
2016-Jul-29 02:57 023 15.6
2016-Jul-29 02:52 293 15.6
2016-Jul-29 02:47 315 15.6
2016-Jul-29 02:42 315 15.6
2016-Jul-29 02:37 315 15.6
2016-Jul-29 02:32 315 15.6
2016-Jul-29 02:27 315 15.6
2016-Jul-29 02:22 293 15.6
2016-Jul-29 02:17 293 15.6
2016-Jul-29 02:12 248 15.6
2016-Jul-29 02:07 270 15.6
2016-Jul-29 02:02 023 15.6
2016-Jul-29 01:57 023 15.6
2016-Jul-29 01:52 15.6
2016-Jul-29 01:47 023 15.6
2016-Jul-29 01:42 023 15.6
2016-Jul-29 01:37 338 15.6
2016-Jul-29 01:32 045 15.6
2016-Jul-29 01:27 023 15.6
2016-Jul-29 01:22 158 15.6
2016-Jul-29 01:17 203 15.6
2016-Jul-29 01:12 090 15.6
2016-Jul-29 01:07 045 15.6
2016-Jul-29 01:02 135 15.6
2016-Jul-29 00:57 180 15.6
2016-Jul-29 00:52 203 16.1
2016-Jul-29 00:47 113 16.1
2016-Jul-29 00:42 203 15.6
2016-Jul-29 00:37 203 16.1
2016-Jul-29 00:32 090 16.1
2016-Jul-29 00:27 045 16.1
2016-Jul-29 00:22 045 16.1
2016-Jul-29 00:17 203 0 16.1
2016-Jul-29 00:12 203 16.1
2016-Jul-29 00:07 203 16.1
2016-Jul-29 00:02 180 16.1
2016-Jul-28 23:57 135 16.7
2016-Jul-28 23:52 090 16.7
2016-Jul-28 23:47 225 16.7
2016-Jul-28 23:42 180 16.7
2016-Jul-28 23:37 225 16.7
2016-Jul-28 23:32 180 16.7
2016-Jul-28 23:27 225 16.7
2016-Jul-28 23:22 158 16.7
2016-Jul-28 23:17 180 16.7
2016-Jul-28 23:12 248 17.2
2016-Jul-28 23:07 180 17.2
2016-Jul-28 23:02 225 17.2
2016-Jul-28 22:57 248 17.2
2016-Jul-28 22:52 315 17.2
2016-Jul-28 22:47 270 17.2
2016-Jul-28 22:42 248 17.8
2016-Jul-28 22:37 248 17.8
2016-Jul-28 22:32 270 17.8
2016-Jul-28 22:27 338 17.8
2016-Jul-28 22:22 17.8
2016-Jul-28 22:17 293 17.8
2016-Jul-28 22:12 225 17.8
2016-Jul-28 22:07 225 17.8
2016-Jul-28 22:02 248 17.8
2016-Jul-28 21:57 225 17.8
2016-Jul-28 21:52 180 17.8
2016-Jul-28 21:47 203 17.8
2016-Jul-28 21:42 158 17.8
2016-Jul-28 21:37 225 18.3
2016-Jul-28 21:32 180 0 gusting 2 18.3
2016-Jul-28 21:27 180 18.3
2016-Jul-28 21:22 248 18.3
2016-Jul-28 21:17 203 18.3
2016-Jul-28 21:12 180 18.3
2016-Jul-28 21:07 180 18.3
2016-Jul-28 20:57 225 18.3
2016-Jul-28 20:52 203 18.3
2016-Jul-28 20:47 203 18.9
2016-Jul-28 20:42 203 18.9
2016-Jul-28 20:37 338 18.9
2016-Jul-28 20:32 203 18.9
2016-Jul-28 20:27 225 18.9
2016-Jul-28 20:22 158 18.9
2016-Jul-28 20:17 225 18.9
2016-Jul-28 20:12 203 18.9
2016-Jul-28 20:07 225 18.9
2016-Jul-28 20:02 158 18.9
2016-Jul-28 19:57 180 18.9
2016-Jul-28 19:52 158 19.4
2016-Jul-28 19:47 180 19.4
2016-Jul-28 19:42 180 19.4
2016-Jul-28 19:37 180 19.4
2016-Jul-28 19:32 225 19.4
2016-Jul-28 19:27 180 19.4
2016-Jul-28 19:22 203 19.4
2016-Jul-28 19:17 225 20.0
2016-Jul-28 19:12 180 20.0
2016-Jul-28 19:07 180 20.0
2016-Jul-28 19:02 180 20.6
2016-Jul-28 18:57 203 20.6
2016-Jul-28 18:52 225 20.6
2016-Jul-28 18:47 248 20.6
2016-Jul-28 18:42 180 21.1
2016-Jul-28 18:37 203 21.1
2016-Jul-28 18:32 203 21.1
2016-Jul-28 18:27 225 21.7
2016-Jul-28 18:22 203 21.7
2016-Jul-28 18:17 225 21.7
2016-Jul-28 18:12 225 21.7
2016-Jul-28 18:07 180 22.2
2016-Jul-28 18:02 203 22.2
2016-Jul-28 17:57 180 22.2
2016-Jul-28 17:52 158 22.8
2016-Jul-28 17:47 135 22.8
2016-Jul-28 17:42 135 22.8
2016-Jul-28 17:37 135 22.8
2016-Jul-28 17:32 180 23.3
2016-Jul-28 17:27 158 23.3
2016-Jul-28 17:22 180 23.3
2016-Jul-28 17:17 225 0 gusting 2 23.3
2016-Jul-28 17:12 203 0 gusting 4 23.3
2016-Jul-28 17:07 158 0 gusting 4 23.3
2016-Jul-28 17:02 180 1 gusting 4 23.3
2016-Jul-28 16:57 158 1 gusting 3 23.3
2016-Jul-28 16:52 180 1 gusting 3 23.9
2016-Jul-28 16:47 158 1 gusting 2 23.9
2016-Jul-28 16:42 180 1 gusting 2 23.9
2016-Jul-28 16:37 180 1 gusting 2 23.9
2016-Jul-28 16:32 158 1 gusting 6 23.9
2016-Jul-28 16:27 180 3 gusting 6 23.9
2016-Jul-28 16:22 203 4 gusting 6 23.9
2016-Jul-28 16:17 135 4 gusting 6 23.9
2016-Jul-28 16:12 113 4 gusting 7 23.9
2016-Jul-28 16:07 180 3 gusting 7 23.9
2016-Jul-28 16:02 338 4 gusting 7 23.9